NJE102C LSGG-LSZR

Flight info

Callsign NJE102C
Flight time 0h 32m
Altitude 30000
Route SOSAL N871 KORED DCT BERSU DCT DITON Z671 ROLSA
Aircraft CL60/M-SBDE1E2E3FGHIJ1J4J5J7M3RWXYZ/LB1V1D1

Departure

Time 2026-04-22 08:19
Airport Geneva International Airport (LSGG)

Arrival

Time 2026-04-22 08:51
Airport Sankt Gallen Altenrhein Airport (LSZR)
Time Latitude Longitude Altitude Speed Heading
2026-04-22 07:50 46.22549 6.09486 1403 ft 0 kts 135°
2026-04-22 08:14 46.22548 6.09487 1403 ft 1 kts 135°
2026-04-22 08:15 46.22533 6.09510 1402 ft 4 kts 129°
2026-04-22 08:15 46.22543 6.09575 1401 ft 7 kts 27°
2026-04-22 08:15 46.22591 6.09551 1402 ft 8 kts 316°
2026-04-22 08:15 46.22615 6.09518 1404 ft 0 kts 316°
2026-04-22 08:16 46.22625 6.09491 1404 ft 6 kts 255°
2026-04-22 08:16 46.22581 6.09416 1405 ft 12 kts 236°
2026-04-22 08:16 46.22554 6.09304 1408 ft 9 kts 265°
2026-04-22 08:16 46.22553 6.09239 1410 ft 3 kts 271°
2026-04-22 08:17 46.22553 6.09236 1410 ft 0 kts 272°
2026-04-22 08:17 46.22554 6.09223 1410 ft 4 kts 276°
2026-04-22 08:17 46.22570 6.09170 1413 ft 6 kts 316°
2026-04-22 08:17 46.22613 6.09151 1415 ft 7 kts
2026-04-22 08:18 46.22633 6.09167 1415 ft 0 kts 43°
2026-04-22 08:19 46.22671 6.09223 1416 ft 42 kts 46°
2026-04-22 08:19 46.23132 6.09913 1408 ft 139 kts 46°
2026-04-22 08:19 46.23878 6.10994 2248 ft 158 kts 43°
2026-04-22 08:20 46.24667 6.11979 3226 ft 152 kts 40°
2026-04-22 08:20 46.25476 6.12955 3910 ft 159 kts 40°
2026-04-22 08:20 46.26303 6.14098 4480 ft 178 kts 47°
2026-04-22 08:20 46.27239 6.15525 5221 ft 216 kts 46°
2026-04-22 08:21 46.28377 6.17247 5879 ft 256 kts 46°
2026-04-22 08:21 46.29652 6.19161 6530 ft 269 kts 46°
2026-04-22 08:21 46.30947 6.21106 7198 ft 271 kts 45°
2026-04-22 08:21 46.32292 6.23124 8022 ft 291 kts 45°
2026-04-22 08:22 46.33667 6.25188 9563 ft 294 kts 44°
2026-04-22 08:22 46.35067 6.27290 11006 ft 301 kts 43°
2026-04-22 08:22 46.36498 6.29666 12060 ft 323 kts 54°
2026-04-22 08:22 46.37393 6.32695 13190 ft 340 kts 70°
2026-04-22 08:23 46.38063 6.36024 14257 ft 352 kts 70°
2026-04-22 08:23 46.38752 6.39431 15366 ft 360 kts 70°
2026-04-22 08:23 46.39461 6.42938 16474 ft 368 kts 69°
2026-04-22 08:23 46.40173 6.46474 17538 ft 376 kts 68°
2026-04-22 08:24 46.40911 6.50144 18582 ft 382 kts 68°
2026-04-22 08:24 46.41654 6.53842 19420 ft 392 kts 67°
2026-04-22 08:24 46.42422 6.57686 20419 ft 397 kts 66°
2026-04-22 08:24 46.43198 6.61566 21250 ft 406 kts 66°
2026-04-22 08:25 46.43985 6.65491 22143 ft 410 kts 65°
2026-04-22 08:25 46.45145 6.69174 22959 ft 401 kts 49°
2026-04-22 08:25 46.46869 6.72390 23742 ft 400 kts 41°
2026-04-22 08:25 46.48635 6.75516 24519 ft 407 kts 41°
2026-04-22 08:26 46.50471 6.78787 25295 ft 413 kts 41°
2026-04-22 08:26 46.52301 6.82059 26092 ft 416 kts 41°
2026-04-22 08:26 46.54139 6.85351 26884 ft 419 kts 41°
2026-04-22 08:26 46.55990 6.88674 27662 ft 420 kts 41°
2026-04-22 08:27 46.57821 6.91954 28315 ft 423 kts 40°
2026-04-22 08:27 46.59690 6.95297 28821 ft 430 kts 40°
2026-04-22 08:27 46.61584 6.98700 29541 ft 430 kts 40°
2026-04-22 08:27 46.63473 7.02096 30007 ft 436 kts 40°
2026-04-22 08:28 46.65421 7.05586 30092 ft 450 kts 40°
2026-04-22 08:28 46.67409 7.09154 30100 ft 464 kts 40°
2026-04-22 08:28 46.71545 7.16625 30100 ft 474 kts 41°
2026-04-22 08:29 46.75646 7.24079 30107 ft 469 kts 41°
2026-04-22 08:29 46.79726 7.31510 30105 ft 468 kts 41°
2026-04-22 08:30 46.83786 7.38922 30108 ft 467 kts 41°
2026-04-22 08:30 46.87886 7.46437 30116 ft 468 kts 41°
2026-04-22 08:31 46.91944 7.53895 30121 ft 467 kts 42°
2026-04-22 08:32 46.97995 7.65059 30118 ft 466 kts 42°
2026-04-22 08:32 47.02022 7.72515 29768 ft 458 kts 43°
2026-04-22 08:32 47.03970 7.76143 29226 ft 448 kts 43°
2026-04-22 08:33 47.05866 7.79672 28695 ft 439 kts 43°
2026-04-22 08:33 47.07738 7.83158 28119 ft 431 kts 44°
2026-04-22 08:33 47.09611 7.86645 27569 ft 428 kts 44°
2026-04-22 08:33 47.11420 7.90013 27000 ft 428 kts 45°
2026-04-22 08:34 47.13247 7.93450 26452 ft 428 kts 47°
2026-04-22 08:34 47.14920 7.97172 25864 ft 431 kts 52°
2026-04-22 08:34 47.16505 8.00883 25292 ft 430 kts 52°
2026-04-22 08:34 47.18090 8.04588 24714 ft 425 kts 52°
2026-04-22 08:35 47.19640 8.08222 24162 ft 419 kts 52°
2026-04-22 08:35 47.21176 8.11827 23608 ft 414 kts 53°
2026-04-22 08:35 47.22685 8.15372 23065 ft 409 kts 53°
2026-04-22 08:35 47.24183 8.18898 22530 ft 404 kts 53°
2026-04-22 08:36 47.25657 8.22368 22006 ft 399 kts 54°
2026-04-22 08:36 47.27117 8.25815 21480 ft 392 kts 55°
2026-04-22 08:36 47.28554 8.29213 20959 ft 384 kts 56°
2026-04-22 08:36 47.29672 8.32688 20458 ft 380 kts 69°
2026-04-22 08:37 47.30135 8.36507 19950 ft 375 kts 85°
2026-04-22 08:37 47.30100 8.40320 19412 ft 369 kts 89°
2026-04-22 08:37 47.30024 8.44067 18933 ft 360 kts 89°
2026-04-22 08:37 47.29953 8.47684 18454 ft 352 kts 89°
2026-04-22 08:38 47.29882 8.51252 18006 ft 345 kts 89°
2026-04-22 08:38 47.29810 8.54726 17551 ft 339 kts 89°
2026-04-22 08:38 47.29737 8.58160 17110 ft 332 kts 89°
2026-04-22 08:38 47.29665 8.61514 16675 ft 326 kts 89°
2026-04-22 08:39 47.29592 8.64848 16245 ft 320 kts 89°
2026-04-22 08:39 47.29832 8.68046 15830 ft 310 kts 70°
2026-04-22 08:39 47.30861 8.70772 15497 ft 301 kts 54°
2026-04-22 08:39 47.32069 8.73264 15283 ft 298 kts 54°
2026-04-22 08:40 47.33277 8.75719 14975 ft 295 kts 53°
2026-04-22 08:40 47.34476 8.78150 14522 ft 293 kts 53°
2026-04-22 08:40 47.35672 8.80569 14045 ft 292 kts 53°
2026-04-22 08:40 47.36867 8.82992 13561 ft 291 kts 53°
2026-04-22 08:41 47.38049 8.85388 13088 ft 290 kts 53°
2026-04-22 08:41 47.39227 8.87777 12619 ft 288 kts 53°
2026-04-22 08:41 47.40415 8.90186 12134 ft 288 kts 53°
2026-04-22 08:41 47.41587 8.92567 11748 ft 283 kts 53°
2026-04-22 08:42 47.42730 8.94895 11390 ft 278 kts 53°
2026-04-22 08:42 47.43845 8.97165 11004 ft 274 kts 53°
2026-04-22 08:42 47.44960 8.99449 10656 ft 271 kts 53°
2026-04-22 08:42 47.46051 9.01695 10271 ft 269 kts 53°
2026-04-22 08:43 47.47128 9.03935 9848 ft 264 kts 53°
2026-04-22 08:43 47.48174 9.06126 9487 ft 257 kts 53°
2026-04-22 08:43 47.49180 9.08234 9150 ft 248 kts 57°
2026-04-22 08:43 47.49833 9.10519 8888 ft 232 kts 72°
2026-04-22 08:44 47.50249 9.12753 8589 ft 219 kts 73°
2026-04-22 08:44 47.50639 9.14869 8268 ft 209 kts 73°
2026-04-22 08:44 47.51012 9.16888 8003 ft 199 kts 73°
2026-04-22 08:44 47.51368 9.18804 7734 ft 185 kts 73°
2026-04-22 08:45 47.51699 9.20570 7490 ft 174 kts 73°
2026-04-22 08:45 47.51978 9.22290 7184 ft 174 kts 80°
2026-04-22 08:45 47.51994 9.24097 6847 ft 173 kts 93°
2026-04-22 08:45 47.51791 9.25838 6541 ft 173 kts 99°
2026-04-22 08:46 47.51517 9.27569 6219 ft 170 kts 100°
2026-04-22 08:46 47.51266 9.29253 5929 ft 163 kts 98°
2026-04-22 08:46 47.51067 9.30877 5634 ft 159 kts 96°
2026-04-22 08:46 47.50901 9.32493 5345 ft 158 kts 95°
2026-04-22 08:47 47.50753 9.34094 5072 ft 159 kts 94°
2026-04-22 08:47 47.50602 9.35724 4779 ft 159 kts 94°
2026-04-22 08:47 47.50448 9.37303 4467 ft 150 kts 95°
2026-04-22 08:47 47.50301 9.38691 4280 ft 127 kts 95°
2026-04-22 08:48 47.50165 9.39966 4034 ft 124 kts 94°
2026-04-22 08:48 47.50031 9.41207 3776 ft 120 kts 95°
2026-04-22 08:48 47.49902 9.42395 3535 ft 116 kts 94°
2026-04-22 08:48 47.49789 9.43591 3357 ft 118 kts 94°
2026-04-22 08:49 47.49661 9.44774 3185 ft 115 kts 94°
2026-04-22 08:49 47.49543 9.45980 2990 ft 120 kts 94°
2026-04-22 08:49 47.49407 9.47225 2820 ft 122 kts 95°
2026-04-22 08:49 47.49277 9.48455 2599 ft 121 kts 91°
2026-04-22 08:50 47.49180 9.49689 2334 ft 118 kts 94°
2026-04-22 08:50 47.49062 9.50899 2081 ft 121 kts 96°
2026-04-22 08:50 47.48912 9.52130 1867 ft 119 kts 95°
2026-04-22 08:50 47.48784 9.53347 1672 ft 120 kts 95°
2026-04-22 08:51 47.48657 9.54572 1438 ft 122 kts 97°
2026-04-22 08:51 47.48537 9.55763 1311 ft 103 kts 97°
2026-04-22 08:51 47.48448 9.56615 1311 ft 63 kts 98°
2026-04-22 08:51 47.48410 9.56975 1311 ft 18 kts 99°
2026-04-22 08:52 47.48421 9.57066 1312 ft 9 kts 24°
2026-04-22 08:52 47.48496 9.57081 1312 ft 12 kts
2026-04-22 08:52 47.48558 9.57055 1311 ft 10 kts 281°
2026-04-22 08:52 47.48571 9.56929 1311 ft 14 kts 279°
2026-04-22 08:53 47.48589 9.56756 1311 ft 18 kts 278°
2026-04-22 08:53 47.48608 9.56559 1310 ft 18 kts 278°
2026-04-22 08:53 47.48627 9.56365 1310 ft 18 kts 278°
2026-04-22 08:53 47.48638 9.56266 1310 ft 15 kts 278°
2026-04-22 08:54 47.48656 9.56091 1310 ft 19 kts 278°
2026-04-22 08:54 47.48679 9.55874 1310 ft 22 kts 278°
2026-04-22 08:54 47.48698 9.55687 1310 ft 18 kts 278°
2026-04-22 08:54 47.48716 9.55496 1310 ft 16 kts 274°
2026-04-22 08:55 47.48724 9.55358 1310 ft 5 kts 228°
2026-04-22 08:55 47.48707 9.55290 1310 ft 9 kts 276°
2026-04-22 08:55 47.48712 9.55258 1310 ft 1 kts 325°
2026-04-22 08:55 47.48719 9.55256 1310 ft 0 kts 355°